User: anonymous   Login
Location: Aytr�
(46.1357°N, 1.1145°W)
Time: 02:59:59
(UTC+00:00)
Language:

SL-8 Rocket - Orbit

View from above orbital plane
View from above orbital plane
View from above satellite
View from above satellite

Ground track
Ground track

The orbit data is extracted from the following two-line orbital elements,

1 21088U 91006B   21136.71842358  .00000057  00000-0  42645-4 0  9993
2 21088  82.9455  37.4459 0021221 279.0663 109.8260 13.77163698522081
Epoch (UTC): 16 May 2021 17:14:31
Eccentricity: 0.0021221
inclination: 82.9455°
perigee height: 958 km
apogee height: 989 km
right ascension of ascending node: 37.4459°
argument of perigee: 279.0663°
revolutions per day: 13.77163698
mean anomaly at epoch: 109.8260°
orbit number at epoch: 52208

The dashed part of the orbit path shows where the satellite is in the earth's shadow,  

DLR